Regional Weather Roundup
Issued by NWS Wakefield, VA

Home | Current Version | Previous Version | Text Only | Print | Product List | Glossary On
Versions: 1 2 3 4 5 6 7 8 9 10 11 12 13 14 15 16 17 18 19 20 21 22 23 24 25 26 27 28 29 30 31 32 33 34 35 36 37 38 39 40 41 42 43 44 45 46 47 48 49 50
000
ASUS41 KAKQ 031315
RWRAKQ

REGIONAL WEATHER ROUNDUP
NATIONAL WEATHER SERVICE WAKEFIELD VA
900 AM EDT MON AUG 03 2015

Note: "fair" indicates few or no clouds below 12,000 feet with no
significant weather and/or obstructions to visibility. * = Denotes
station may not report precipitation (e.g., rain,snow,etc.),
thunder or fog.

VAZ042-051-052>054-056-031400-
NORTHERN VIRGINIA

CITY           SKY/WX    TMP DP  RH WIND       PRES   REMARKS
WASH NATIONAL  MOSUNNY   80  63  55 S8        29.90R
DULLES         MOSUNNY   75  64  68 S8        29.89R
FORT BELVOIR   NOT AVBL
QUANTICO       MOSUNNY   82  64  55 CALM      29.86R
FREDERICKSBRG* SUNNY     76  64  66 CALM      29.89R
STAFFORD*      PTSUNNY   73  63  72 CALM      29.94R
WARRENTON      SUNNY     75  67  76 SW6       29.90R
CULPEPER*      MOSUNNY   72  64  77 SW3       29.91S
MANASSAS*      SUNNY     73  66  78 SW6       29.89S
LEESBURG*      SUNNY     77  64  65 SW6       29.90S
WINCHESTER     SUNNY     77  59  53 SW8       29.90R
FRONT ROYAL*   FAIR      72  61  68 S3        29.89F
LURAY*         FAIR      73  61  64 SW6       29.93S
$$

VAZ048-049-060>072-079>083-031400-
CENTRAL AND SOUTH CENTRAL VIRGINIA

CITY           SKY/WX    TMP DP  RH WIND       PRES   REMARKS
RICHMOND       MOSUNNY   78  68  71 S8        29.91R
CHESTERFIELD*  FAIR      75  59  57 S3        29.93R
PETERSBURG*    MOSUNNY   76  72  86 S3        29.93S
HANOVER        SUNNY     77  68  73 SW7       29.92S
TAPPAHANNOCK*  SUNNY     78  69  73 CALM      29.92R
QUINTON*       FAIR      75  70  84 S3        29.91S
CHARLOTTSVILLE SUNNY     74  62  66 N5        29.91R
GORDONSVILLE*  FAIR      72  64  78 CALM      29.91R
ORANGE*        SUNNY     77  64  65 CALM      29.93R
LOUISA*        SUNNY     75  63  64 SW5       29.91R
BUMPASS*       FAIR      73  63  72 W3        29.91R
FARMVILLE*     SUNNY     71  62  71 S3        29.92R
CREWE*         PTSUNNY  N/A N/A N/A CALM      29.92S
FORT PICKETT*  PTSUNNY   74  66  74 W6        29.93R
CHASE CITY*    FAIR      75  69  80 W3        29.94S
CLARKSVILLE*   FAIR      73  68  83 SW3       29.94R
SOUTH HILL*    SUNNY     75  70  85 CALM      29.99R
LAWRENCEVILLE* FAIR      75  70  83 SW6       29.93R
EMPORIA*       SUNNY     75  70  83 S6        29.94S
$$

VAZ088>098-031400-
SOUTHEAST VIRGINIA

CITY           SKY/WX    TMP DP  RH WIND       PRES   REMARKS
NORFOLK        SUNNY     80  72  76 SW13      29.92R
VIRGINIA BEACH MOSUNNY   82  73  74 S10       29.93R
NORFOLK NAVAL  MOSUNNY   79  72  79 SW9       29.94R
WEST POINT*    MOSUNNY   78  70  75 S5        29.92S
SALUDA*        FAIR      76  72  85 SW7       29.91R
NEWPORT NEWS   MOSUNNY   78  73  84 SW14      29.93R
LANGLEY AFB    SUNNY     79  73  82 SW13      29.92R
FORT EUSTIS    SUNNY     78  78 100 SW7       29.91R
WILLIAMSBURG*  SUNNY     79  72  78 W5        29.93R
HR EXEC AP*    FAIR      79  73  83 SW6       29.95S
FRANKLIN*      SUNNY     78  72  83 SW8       29.94S
WAKEFIELD      SUNNY     77  71  82 VRB6      29.93R
$$

VAZ020-022-025-037-045-031400-
WEST CENTRAL AND SOUTHWEST VIRGINIA

CITY           SKY/WX    TMP DP  RH WIND       PRES   REMARKS
STAUNTON*      MOSUNNY   73  61  65 CALM      29.96R
WAYNESBORO*    FAIR      72  60  67 NW5       29.97R
HOT SPRINGS VA SUNNY     66  55  68 W14       30.05R
LYNCHBURG      SUNNY     73  62  68 CALM      29.95R
DANVILLE       SUNNY     72  64  76 CALM      29.95R
SOUTH BOSTON*  FAIR      72  65  80 CALM      29.94S
MARTINSVILLE   SUNNY     73  62  66 S3        29.98S
ROANOKE        MOSUNNY   74  60  61 NW6       29.99R
BLACKSBURG     MOSUNNY   69  62  80 NW3       30.06R
DUBLIN*          N/A     67  63  86 CALM      30.04R
MARION*        PTSUNNY   69  61  75 CALM      30.08R
HILLSVILLE*    PTSUNNY   65  60  84 CALM      30.04R
RICHLANDS*     FAIR      69  59  69 CALM      30.07R
WISE*          SUNNY     73  55  53 NW6       30.08R
ABINGDON*      MOSUNNY   73  58  59 CALM      30.03R
$$

MDZ021>025-VAZ099-100-031400-
SOUTHERN MARYLAND AND THE DELMARVA PENINSULA

CITY           SKY/WX    TMP DP  RH WIND       PRES   REMARKS
PATUXENT RIVER MOSUNNY   78  69  73 SW10      29.89S
BAY BRIDGE APT   N/A     77  63  61 SW7       29.89R
LEONARDTOWN    SUNNY     79  66  65 CALM      29.91S
DOVER          SUNNY     78  71  77 SW10      29.87S
GEORGETOWN     SUNNY     79  70  74 SW9       29.90S
EASTON         MOSUNNY   81  72  74 SW9       29.92S
CAMBRIDGE      SUNNY     79  70  73 SW3       29.88S
SALISBURY      SUNNY     79  72  79 SW5       29.90S
OCEAN CITY     SUNNY     81  72  74 W7        29.91R
WALLOPS ISLAND MOSUNNY   80  75  84 S8        29.92R
ACCOMACK*      MOSUNNY  N/A N/A N/A SW6       29.92R
$$

NCZ012>017-030>032-031400-
NORTH CENTRAL AND EASTERN NORTH CAROLINA

CITY           SKY/WX    TMP DP  RH WIND       PRES   REMARKS
ROANOKE RAPIDS FAIR      77  72  83 SW10      29.94S
RALEIGH        PTSUNNY   77  72  84 SW7       29.95R
ELIZABETH CITY MOSUNNY   81  74  79 S9        29.95R
AHOSKIE*       SUNNY     78  73  84 S5        29.93F
EDENTON*         N/A     79  73  82 SW10      29.95S
CURRITUCK*     SUNNY     80  73  79 SW7       29.95S
KILL DEVIL HLS SUNNY     79  72  80 SW6       29.94F
MANTEO         SUNNY     77  71  82 SW13      29.96S
CAPE HATTERAS  RAIN      70  67  90 W3        30.00R
TARBORO*         N/A     77  74  89 S5        29.95S
GOLDSBORO      MOSUNNY   79  74  84 SW8       29.94R
WASHINGTON     PTSUNNY   77  73  88 SW6       29.96S
GREENVILLE     CLOUDY    79  73  83 SW6       29.97R
NEW BERN       PTSUNNY   76  71  85 MISG      29.97S
WILMINGTON     LGT RAIN  76  73  91 S5        29.94F
$$

VAZ048-031400-
ELSEWHERE

CITY           SKY/WX    TMP DP  RH WIND       PRES   REMARKS
HARRISBURG PA  MOSUNNY   76  62  62 S6        29.85F
BALTIMORE      MOSUNNY   77  64  64 SW6       29.88R
ANNAPOLIS      SUNNY     78  62  57 W9        29.88R
ANDREWS AFB    SUNNY     78  63  59 SW8       29.89R
PHILADELPHIA   MOSUNNY   79  65  62 SW13      29.87S
HENDERSON NC   SUNNY     76  67  73 SW7       29.95R
GREENSBORO     MOSUNNY   76  67  73 SW8       29.96R
ROCKY MOUNT    CLOUDY    78  73  84 SW8       29.95S
$$

VAZ100-031400-
MARINE

STATION/POSITION TIME  TEMP    WIND        PRES    WAVE   SWELL
                       AIR SEA DIR/SP/G            HT/PER HT/PER
                 (UTC) (F)     (DEG/KT/KT) (MB)    (FT/S) (FT/S)
BRANDYWINE LGT   1200   76 76  230/ 11/ 13 1012.3R
CAPE MAY NJ      1200   76 73  220/  5/  6 1011.9R
LEWES DE         1200   77 72  240/  6/  8 1012.1R
15NM E FENWICK I 1250   78 79  230/  6/  8 1012.8R   2/11   2/11
OCEAN-CITY-INLET 1200   76 77  260/  4/  5 1011.7R
WACHAPREAGUE VA  1200   80 82  250/  2/  5 1012.7R
GOOSES REEF MD   1300   80 81  250/ 10/ 12 1013.1R
COVE POINT MD    1212   77     240/ 10/ 12 1012.6R
SOLOMONS ISLAND  1200      82                N/A
BISHOPS HEAD MD  1200   80 80  230/ 10/ 11 1011.4R
PINEY POINT MD   1200          240/  8/ 10   N/A
POTOMAC MD       1300   79 82  220/  8/ 10 1011.4R   1
CAMBRIDGE MD     1200   77 84  190/  3/  5 1011.2R
LEWISETTA VA     1200   77 83  230/  5/  7 1012.0R
RAPPAHANNOCK LGT 1200          220/  9/ 11 1013.1R
STINGRAY PT      1300   78 83  240/  6/  8 1013.1R
YORK RVR RNG VA  1200   77     250/  8/ 10 1012.1R
YORKTOWN VA      1200   75 83  220/  7/  9 1012.3R
JAMESTOWN VA     1300   76 85  260/  6/  8   N/A
DOMINION TERM VA 1200   76     210/  9/ 10 1012.7R
KIPTOPEKE VA     1200      81  230/ 10/ 12   N/A
CHES BAY BRIDGE  1200   77 81  200/ 12/ 13 1012.4R
CAPE HENRY VA    1200   77     210/  6/  9   N/A
CHESAPEAKE LGHT  1200   77     230/ 13/ 14 1013.8R
WILLOUBY STN VA  1200   76     220/ 14/ 16 1013.6R
CAPE HENRY BUOY  1228      81                N/A     2/11   2/11
1ST LANDING BUOY 1300      81              1013.2R   1/ 4
CAPE CHARLES BUO 1226      79                N/A     2/11   2/11
OFFSHORE WE BUOY 1211      82                N/A     3/11   2/11
64NM E OF VA BCH 1250   81 81  190/ 16/ 17 1013.6R   3/ 4   2/ 7
DUCK PIER NC     1200   80 77  190/ 10/ 12 1013.0R
44100 DUCK FRF   1224      81                N/A     2/11   2/11
44056 DUCK FRF   1211      79                N/A     2/12   2/12
OREGON INLET NC  1200   77 83  180/ 11/ 15 1014.5R
HATTERAS NC      1200   72 82  290/  8/ 11 1015.0R
DIAMOND SHLS NC  1250   76 84  310/ 19/ 23 1015.1S   6/ 7   2/12
CAPE LOOKOUT NC  1300   78     280/ 11/ 12 1014.5S


USA.gov is the U.S. government's official web portal to all federal, state and local government web resources and services.